Flag for Italy Weather past 2 weeks in Modena, Italy

Now
63 °F

Passing clouds.


Feels Like: 63 °F
Forecast: 64 / 80 °F
Wind: No wind

Location: Bologna / Borgo Panigale

Current Time: Sep 19, 2014 at 4:54:04 AM

Latest Report: Sep 19, 2014 at 4:20 AM


Visibility: N/A

Pressure: 30.07 "Hg

Humidity: 94%

Dew point: 61 °F

Location of ModenaLocation

Historic Weather in Modena — Graph

°F

Modena temperature yesterday

Maximum temperature yesterday: 73 °F (at 2:50 PM)
Minimum temperature yesterday: 57 °F (at 4:20 AM)
Average temperature yesterday: 66 °F

Past Weeks' High & Low Weather Summary

 TemperatureHumidityPressure
High86 °F (Sep 8, 4:20 PM)100% (Sep 5, 4:20 AM)30.07 "Hg (Sep 5, 4:20 AM)
Low55 °F (Sep 13, 5:50 AM)40% (Sep 8, 4:20 PM)29.80 "Hg (Sep 11, 8:20 AM)
Average69 °F76%29.95 "Hg
* Reported Sep 4 3:20 AM — Sep 19 3:50 AM, Modena, Weather by CustomWeather, © 2014

Note: Actual official high and low records may vary slightly from our data, if they occured in-between our weather recording intervals... More about our weather records

Advertising

Modena weather history for previous 24 hours

 ConditionsComfort  
Time TempWeatherWind HumidityBarometerVisibility
3:50 AM
Sep 19
63 °FPassing clouds.2 mph94%30.07 "HgN/A
3:20 AM63 °FPassing clouds.1 mph94%30.07 "HgN/A
2:50 AM61 °FPassing clouds.2 mph94%30.07 "HgN/A
2:20 AM63 °FClear.2 mph88%30.07 "Hg10 mi
1:50 AM61 °FClear.2 mph94%30.07 "Hg10 mi
1:20 AM63 °FClear.2 mph88%30.07 "Hg10 mi
12:50 AM63 °FClear.2 mph94%30.07 "Hg10 mi
12:20 AM63 °FClear.2 mph94%30.07 "Hg10 mi
11:50 PM
Sep 18
64 °FClear.2 mph88%30.07 "Hg10 mi
11:20 PM64 °FClear.5 mph88%30.07 "Hg10 mi
10:50 PM66 °FClear.5 mph83%30.07 "Hg10 mi
10:20 PM66 °FClear.3 mph83%30.07 "Hg10 mi
9:50 PM66 °FClear.7 mph78%30.07 "Hg10 mi
9:20 PM66 °FPassing clouds.6 mph78%30.07 "HgN/A
8:50 PM68 °FPassing clouds.6 mph73%30.04 "HgN/A
8:20 PM68 °FPassing clouds.5 mph73%30.04 "HgN/A
7:50 PM68 °FPassing clouds.6 mph73%30.04 "HgN/A
7:20 PM70 °FPassing clouds.6 mph69%30.04 "HgN/A
6:50 PM72 °FSunny.7 mph65%30.04 "Hg10 mi
6:20 PM72 °FPassing clouds.7 mph69%30.04 "HgN/A
5:50 PM73 °FSunny.8 mph65%30.01 "Hg10 mi
5:20 PM73 °FPassing clouds.8 mph65%30.04 "HgN/A
4:50 PM73 °FSunny.9 mph61%30.01 "Hg10 mi
4:20 PM73 °FPassing clouds.10 mph61%30.01 "HgN/A
3:50 PM73 °FSunny.12 mph61%30.01 "Hg10 mi
3:20 PM73 °FPassing clouds.9 mph61%30.04 "HgN/A
2:50 PM73 °FPassing clouds.10 mph61%30.04 "HgN/A
2:20 PM72 °FPassing clouds.9 mph69%30.04 "HgN/A
1:50 PM72 °FSunny.8 mph69%30.04 "Hg10 mi
1:20 PM70 °FSunny.8 mph73%30.04 "Hg10 mi
12:50 PM70 °FSunny.9 mph73%30.04 "Hg10 mi
12:20 PM70 °FPassing clouds.8 mph73%30.04 "HgN/A
11:50 AM70 °FPassing clouds.6 mph73%30.07 "HgN/A
11:20 AM68 °FPassing clouds.5 mph78%30.07 "Hg6 mi
10:50 AM66 °FPassing clouds.3 mph83%30.07 "HgN/A
10:20 AM66 °FLight rain. Passing clouds.5 mph83%30.04 "Hg5 mi
9:50 AM64 °FClear.2 mph88%30.04 "Hg5 mi
9:20 AM64 °FSunny.2 mph88%30.04 "Hg10 mi
8:50 AM63 °FSunny.1 mph88%30.04 "Hg10 mi
8:20 AM63 °FSunny.2 mph88%30.01 "Hg10 mi
7:50 AM61 °FClear.5 mph94%30.01 "Hg10 mi
7:20 AM59 °FClear.1 mph94%30.01 "Hg10 mi
6:50 AM59 °FClear.2 mph94%30.01 "Hg10 mi
6:20 AM57 °FClear.2 mph100%30.01 "Hg10 mi
5:50 AM59 °FPassing clouds.3 mph94%30.01 "HgN/A
5:20 AM57 °FClear.1 mph94%30.01 "Hg10 mi
4:50 AM57 °FClear.1 mph100%30.01 "Hg10 mi
4:20 AM57 °FClear.No wind100%30.01 "Hg10 mi
Weather by CustomWeather, © 2014

See weather overviewHow to use our weather pages